Regional Weather Roundup
Issued by NWS

Home | Current Version | Previous Version | Graphics & Text | Print | Product List | Glossary On
Versions: 1 2 3 4 5 6 7 8 9 10 11 12 13 14 15 16 17 18 19 20 21 22 23 24 25 26 27 28 29 30 31 32 33 34 35 36 37 38 39 40 41 42 43 44 45 46 47 48 49 50
056
ASUS45 KABQ 222310
RWRNM
NEW MEXICO REGIONAL WEATHER ROUNDUP
NATIONAL WEATHER SERVICE ALBUQUERQUE NM
500 PM MDT SUN OCT 22 2017

NOTE: "FAIR" MEANS FEW OR NO CLOUDS BELOW 12,000 FEET AGL WITH NO
       SIGNIFICANT WEATHER OR OBSTRUCTIONS TO VISION.

      THIS PRODUCT IS RELEASED AS TWO VERSIONS.  ONE VERSION NEAR
      THE TOP OF THE HOUR CONTAINING PRELIMINARY DATA FROM ALBUQUERQUE
      AND OTHER STATIONS.  A FINAL VERSION WITH ADDITIONAL DATA IS
      ISSUED ABOUT 10 MINUTES AFTER THE HOUR.

NMZ501-503-504-510>518-230000-
NORTHWEST PLATEAU/NORTHCENTRAL MOUNTAINS

CITY           SKY/WX    TMP DP  RH WIND       PRES   REMARKS
FARMINGTON     FAIR      65  20  17 W23G29    30.34F
LOS ALAMOS     FAIR      59  16  18 S3        30.37S
SANTA FE       FAIR      62  18  18 CALM      30.32S
TAOS           FAIR      60  16  18 SE7       30.38S
ANGEL FIRE     FAIR      55  18  23 W14G21    30.39R

$$
NMZ402-403-502-505>509-230000-
WESTCENTRAL MOUNTAINS/SOUTHWEST MOUNTAINS

CITY           SKY/WX    TMP DP  RH WIND       PRES   REMARKS
GALLUP         FAIR      72  22  15 NE7       30.40S
GRANTS         FAIR      69  19  15 N15       30.41S
SILVER CITY    FAIR      74  17  11 S8        30.32S

$$
NMZ407-409-411-412-230000-
SOUTHERN DESERTS

CITY           SKY/WX    TMP DP  RH WIND       PRES   REMARKS
DEMING         FAIR      76  18  11 S7        30.27F
LAS CRUCES     FAIR      75  13   9 CALM      30.27F
HOLLOMAN AFB   FAIR      73  18  12 CALM      30.26F
ALAMOGORDO     FAIR      73  18  12 NW7       30.26F
T OR C         FAIR      73  16  11 E7        30.28F

$$
NMZ519>523-230000-
CENTRAL VALLEYS/CENTRAL HIGHLANDS

CITY           SKY/WX    TMP DP  RH WIND       PRES   REMARKS
ALBUQUERQUE    FAIR      68  18  14 CALM      30.31F
DOUBLE EAGLE   MOSUNNY   68  27  21 NW23      30.32F
MORIARTY ARPT  FAIR      68  23  18 W17G23    30.31S
CLINES CORNERS FAIR      61  20  20 NW21G36   30.33S
BELEN          FAIR      68  18  15 NE8       30.30S
SOCORRO        FAIR      71  17  12 SE3       30.28F

$$
NMZ524>526-539-540-230000-
SOUTHCENTRAL MOUNTAINS

CITY           SKY/WX    TMP DP  RH WIND       PRES   REMARKS
RUIDOSO        FAIR      64  19  17 NW17G25   30.36S

$$
NMZ527>531-230000-
NORTHEAST HIGHLANDS/NORTHEAST PLAINS

CITY           SKY/WX    TMP DP  RH WIND       PRES   REMARKS
LAS VEGAS      FAIR      65  21  18 SW6       30.27S
RATON          FAIR      65  28  24 SW3       30.20F
CLAYTON        FAIR      62  28  27 S14       30.17F

$$
NMZ532>537-230000-
EASTCENTRAL PLAINS

CITY           SKY/WX    TMP DP  RH WIND       PRES   REMARKS
SANTA ROSA     FAIR      72  23  16 W15       30.17S
TUCUMCARI      FAIR      69  28  21 NW3       30.14F
CANNON AFB     SUNNY     68  26  21 SW7       30.20F
CLOVIS AIRPORT   N/A     66  29  24 SW12      30.21F

$$
NMZ028-029-538-230000-
SOUTHEAST PLAINS

CITY           SKY/WX    TMP DP  RH WIND       PRES   REMARKS
ROSWELL        FAIR      71  30  21 S14       30.19F
ARTESIA        FAIR      70  32  24 SE14      30.20F
CARLSBAD       FAIR      70  36  28 SE9       30.19F
HOBBS          SUNNY     70  28  21 SW8       30.22F


$$




USA.gov is the U.S. government's official web portal to all federal, state and local government web resources and services.